Location: Cardiff
(53.7833°N, 113.6000°W)
Time: 16:19:54
(UTC+00:00)

RS-15 - Pass Details

Date: 03 December 2023
Orbit: 1893 x 2151 km, 64.8° (Epoch: 27 February)

Event Time Altitude Azimuth Distance (km) Brightness Sun altitude
Rises 05:27:49 0° 224° (SW) 5,650 10.5 -51.4°
Enters shadow 05:31:05 - 224° (SW) 4,689 10.0 -51.8°
Exits shadow 05:55:34 - 47° (NE) 4,571 10.0 -54.1°
Sets 05:58:27 0° 48° (NE) 5,429 10.4 -54.4°
